Orbital Elements at Epoch 2459000.5 (2020-May-31.0) TDB
Reference: JPL 22 (heliocentric ecliptic J2000)
Element | Value | Uncertainty (1-sigma) | Units |
e | .2549971179158748 | 2.9255e-08 | |
a | 2.360634121711536 | 7.5792e-09 | au |
q | 1.758679224221222 | 6.7623e-08 | au |
i | 5.75064126464 | 3.5953e-06 | deg |
node | 156.0083734370257 | 3.2202e-05 | deg |
peri | 201.009793712414 | 3.2846e-05 | deg |
M | 186.7746715332796 | 6.9191e-06 | deg |
tp | 2459637.956186215877 (2022-Feb-27.45618622) | 2.6939e-05 | TDB |
period | 1324.772936319203 3.63 | 6.3801e-06 1.747e-08 | d yr |
n | .271744681771834 | 1.3087e-09 | deg/d |
Q | 2.962589019201849 | 9.5118e-09 | au |
|
| | Orbit Determination Parameters
Additional Information
|